Regional Weather Roundup
Issued by NWS

Home | Current Version | Previous Version | Graphics & Text | Print | Product List | Glossary On
Versions: 1 2 3 4 5 6 7 8 9 10 11 12 13 14 15 16 17 18 19 20 21 22 23 24 25 26 27 28 29 30 31 32 33 34 35 36 37 38 39 40 41 42 43 44 45 46 47 48 49 50
000
ASUS43 KBIS 300610
RWRND

NORTH DAKOTA REGIONAL WEATHER ROUNDUP
NATIONAL WEATHER SERVICE BISMARCK ND
100 AM CDT TUE JUN 30 2015

NOTE: "FAIR" INDICATES FEW OR NO CLOUDS BELOW 12,000 FEET WITH NO
SIGNIFICANT WEATHER AND/OR OBSTRUCTIONS TO VISIBILITY.


NDZ001>003-009>011-017-300700-
NORTHWEST NORTH DAKOTA

CITY           SKY/WX    TMP DP  RH WIND       PRES   REMARKS
WILLISTON      CLOUDY    71  54  54 N9        30.00S HAZE
6HR MIN TEMP:  71; 6HR MAX TEMP:  91;

MINOT          CLOUDY    70  62  76 S8        29.96R
MINOT AFB      CLOUDY    68  68  99 S6        29.96S
$$

NDZ018>021-031>035-040>046-300700-
SOUTHWEST NORTH DAKOTA

CITY           SKY/WX    TMP DP  RH WIND       PRES   REMARKS
BISMARCK       CLOUDY    71  65  81 NE8       29.94R
6HR MIN TEMP:  71; 6HR MAX TEMP:  90;

DICKINSON      CLOUDY    73  63  70 NE9       29.95S
GARRISON         N/A     73  64  73 E5        29.95R
6HR MIN TEMP:  73; 6HR MAX TEMP:  87;

HETTINGER ARPT MOCLDY    62  59  90 W6        29.95S
$$

NDZ004>008-012>016-024-026-027-054-300700-
NORTHEAST NORTH DAKOTA

CITY           SKY/WX    TMP DP  RH WIND       PRES   REMARKS
GRAND FORKS    PTCLDY    58  57  97 W6        29.93R
GRND FRKS AFB  CLEAR     60  58  92 N6        29.94R
DEVILS LAKE    CLOUDY    63  57  82 CALM      29.96S
$$

NDZ022-023-025-028>030-036>039-047>053-300700-
SOUTHEAST NORTH DAKOTA

CITY           SKY/WX    TMP DP  RH WIND       PRES   REMARKS
FARGO          CLEAR     62  58  86 N7        29.92R
6HR MIN TEMP:  62; 6HR MAX TEMP:  75;

JAMESTOWN      CLOUDY    66  61  84 NE5       29.96R
$$




USA.gov is the U.S. government's official web portal to all federal, state and local government web resources and services.